TOURFACTS.DK  
Stats and Facts from Tour de France.

Tour de France 2017 starts in 35 days
  Riders   Stages   Teams   Summits   Yearly  


 
Search by year

 After:  2016 - Stage 21:   14626 starters.
  5086 different riders.
  632 teams.
  2211 stages.
  454 restdays.
  436049.60 km.
  5622 abandonnees.


Top 3
Christopher Froome89:04:48
Romain Bardet89:08:53
Nairo Quintana89:09:09
Rafal Majka209 pt.
Thomas De Gendt130 pt.
Jarlinson Pantano ..121 pt.
Peter Sagan470 pt.
Marcel Kittel228 pt.
Michael Matthews199 pt.
Adam Yates89:09:30
Louis Meintjes89:11:46
Emanuel Buchmann89:52:28
Facts from Tour de France 2016
  |   Stages.  |   Stage winners.  |   Days in yellow  |   Average speed.  |   Route.  |   Teams.  |   All riders.  |   Rookies.  |   Withdrawls.  |  

  |   GC.  |   Polka  |   Green  |   White  |   Summits. (In tour)  |   Summits. (Points)  |   Miscellaneous.  |  

Stage 15 on 17 - 07 - 2016
         Owning:    Christopher Froome      Thomas De Gendt      Peter Sagan      Adam Yates  

Pick a stage:  1 2 3 4 5 6 7 8 9 10 11 12 13 14 15 16 17 18 19 20 21
  Bourg-en-BresseCuloz | Dist: 159.00 km.
Cat: 1Col du BerthiandPOLRafal Majka10 points 
Cat: 2Col du SappelFRAThomas Voeckler5 points 
Cat: 3Col de PisseloupBELSerge Pauwels2 points 
Cat: 3Côte de RochetteBELSerge Pauwels2 points 
Cat: HCol du Grand ColombierPOLRafal Majka25 points 
Cat: 1Lacets du Grand ColombierPOLRafal Majka10 points 

Average speed for all riders in stage:  33,562 km./hr.
    Place:Name:Team:Time:Km/h:
COLJarlinson Pantano GomezCHEIAM Cycling04:24:49  +  00:00:00=36,025 
POLRafal MajkaRUSTinkoff04:24:49  +  00:00:00=36,025 
FRAAlexis VuillermozFRAAg2r La Mondiale04:24:55  +  00:00:06=36,011 
4 CHESébastien ReichenbachFRAFDJ04:24:55  +  00:00:06=36,011 
5 FRAJulian AlaphilippeBELEtixx - Quick Step04:25:11  +  00:00:22=35,975 
6 BELSerge PauwelsZAFDimension Data04:25:14  +  00:00:25=35,968 
7 FRAPierre RollandUSATeam Cannondale Drapac04:25:14  +  00:00:25=35,968 
8 RUSIlnur ZakarinRUSTeam Katusha04:26:19  +  00:01:30=35,822 
9 ESPDaniel NavarroFRACofidis – Solutions Crédits04:26:19  +  00:01:30=35,822 
10 NLDTom-Jelte SlagterUSATeam Cannondale Drapac04:26:57  +  00:02:08=35,737 
11 HRVKristijan DurasekITALampre-Merida04:26:57  +  00:02:08=35,737 
12 POLBartosz HuzarskiDEUBora-Argon 1804:26:59  +  00:02:10=35,733 
13 NLDWout PoelsGBRSky Procycling04:27:56  +  00:03:07=35,606 
14 KENChristopher FroomeGBRSky Procycling04:27:56  +  00:03:07=35,606 
15 COLNairo QuintanaESPMovistar Team04:27:56  +  00:03:07=35,606 
16 ESPAlejandro ValverdeESPMovistar Team04:27:56  +  00:03:07=35,606 
17 FRARomain BardetFRAAg2r La Mondiale04:27:56  +  00:03:07=35,606 
18 AUSRichie PorteUSABMC Racing Team04:27:56  +  00:03:07=35,606 
19 CZERoman KreuzigerRUSTinkoff04:27:56  +  00:03:07=35,606 
20 ZAFLouis MeintjesITALampre-Merida04:27:56  +  00:03:07=35,606 
21 ENGAdam YatesAUSORICA BikeExchange04:27:56  +  00:03:07=35,606 
22 NLDBauke MollemaUSATrek – Segafredo04:27:56  +  00:03:07=35,606 
23 ITAFabio AruKAZAstana Pro Team04:27:56  +  00:03:07=35,606 
24 ENGDaniel MartinBELEtixx - Quick Step04:27:56  +  00:03:07=35,606 
25 ESPJoaquim RodriguezRUSTeam Katusha04:27:56  +  00:03:07=35,606 
26 CHESteve MorabitoFRAFDJ04:27:56  +  00:03:07=35,606 
27 ESPHaimar ZubeldiaUSATrek – Segafredo04:27:56  +  00:03:07=35,606 
28 PRTNelson OliveiraESPMovistar Team04:27:56  +  00:03:07=35,606 
33 WALGeraint ThomasGBRSky Procycling04:27:56  +  00:03:07=35,606 
34 COLSergio Luis HenaoGBRSky Procycling04:27:56  +  00:03:07=35,606 
35 ITADiego RosaKAZAstana Pro Team04:27:56  +  00:03:07=35,606 
36 SVNJan PolancITALampre-Merida04:27:56  +  00:03:07=35,606 
37 FRAThomas VoecklerFRADirect Energie04:27:56  +  00:03:07=35,606 
29 NLDStef ClementCHEIAM Cycling04:29:24  +  00:04:35=35,412 
30 USATejay Van GarderenUSABMC Racing Team04:29:24  +  00:04:35=35,412 
31 ESPMikel NieveGBRSky Procycling04:29:24  +  00:04:35=35,412 
32 ITADomenico PozzovivoFRAAg2r La Mondiale04:29:24  +  00:04:35=35,412 
38 FRARomain SicardFRADirect Energie04:36:49  +  00:12:00=34,463 
39 DEUEmanuel BuchmannDEUBora-Argon 1804:36:53  +  00:12:04=34,455 
40 NZLGeorge BennettNLDTeam Lotto NL - Jumbo04:36:53  +  00:12:04=34,455 
41 ESPRubén PlazaAUSORICA BikeExchange04:36:53  +  00:12:04=34,455 
42 ESTTanel KangertKAZAstana Pro Team04:36:53  +  00:12:04=34,455 
43 BELJan BakelantsFRAAg2r La Mondiale04:36:53  +  00:12:04=34,455 
44 FRAWarren BarguilDEUTeam Giant Alpecin04:38:38  +  00:13:49=34,239 
45 USAPeter StetinaUSATrek – Segafredo04:38:38  +  00:13:49=34,239 
46 FRAAmaël MoinardUSABMC Racing Team04:38:38  +  00:13:49=34,239 
47 ESPDaniel MorenoESPMovistar Team04:38:38  +  00:13:49=34,239 
48 ESPLuis León SánchezKAZAstana Pro Team04:38:38  +  00:13:49=34,239 
49 FRAMickaël CherelFRAAg2r La Mondiale04:38:38  +  00:13:49=34,239 
50 ITAVincenzo NibaliKAZAstana Pro Team04:38:38  +  00:13:49=34,239 
52 ESPGorka Izaguirre InsaustiESPMovistar Team04:38:38  +  00:13:49=34,239 
53 FRAArthur VichotFRAFDJ04:39:15  +  00:14:26=34,163 
54 FRABrice FeilluFRAFortuneo - Vital Concept04:39:15  +  00:14:26=34,163 
55 FRAAnthony RouxFRAFDJ04:39:15  +  00:14:26=34,163 
56 HRVRobert KiserlovskiRUSTinkoff04:39:15  +  00:14:26=34,163 
61 FRAJérôme CoppelCHEIAM Cycling04:39:15  +  00:14:26=34,163 
62 ESPJon Izaguirre InsaustiESPMovistar Team04:39:15  +  00:14:26=34,163 
63 ESPAlberto LosadaRUSTeam Katusha04:39:15  +  00:14:26=34,163 
57 FRAFabrice JeandesbozFRADirect Energie04:41:00  +  00:16:11=33,950 
58 CHEMichael SchärUSABMC Racing Team04:41:30  +  00:16:41=33,890 
59 DEUSimon GeschkeDEUTeam Giant Alpecin04:41:30  +  00:16:41=33,890 
60 NLDTom DumoulinDEUTeam Giant Alpecin04:41:30  +  00:16:41=33,890 
64 LUXBen GastauerFRAAg2r La Mondiale04:43:03  +  00:18:14=33,704 
65 FRAGeoffrey SoupeFRACofidis – Solutions Crédits04:43:51  +  00:19:02=33,609 
66 FRAArnold JeannessonFRACofidis – Solutions Crédits04:43:51  +  00:19:02=33,609 
67 NLDDylan Van BaarleUSATeam Cannondale Drapac04:43:51  +  00:19:02=33,609 
68 LUXFränk SchleckUSATrek – Segafredo04:43:51  +  00:19:02=33,609 
69 FRASylvain ChavanelFRADirect Energie04:43:51  +  00:19:02=33,609 
70 NLDBert-Jan LindemanNLDTeam Lotto NL - Jumbo04:45:52  +  00:21:03=33,372 
71 NLDWilco KeldermanNLDTeam Lotto NL - Jumbo04:45:52  +  00:21:03=33,372 
72 CZEJan BártaDEUBora-Argon 1804:45:52  +  00:21:03=33,372 
73 BELGreg Van AvermaetUSABMC Racing Team04:46:42  +  00:21:53=33,275 
74 BELOliver NaesenCHEIAM Cycling04:46:42  +  00:21:53=33,275 
75 DEUMarcus BurghardtUSABMC Racing Team04:46:42  +  00:21:53=33,275 
76 ITADamiano CarusoUSABMC Racing Team04:46:42  +  00:21:53=33,275 
77 AUTGeorg PreidlerDEUTeam Giant Alpecin04:46:42  +  00:21:53=33,275 
78 CHEMartin ElmigerCHEIAM Cycling04:46:42  +  00:21:53=33,275 
79 BELJürgen RoelandtsBELLotto Soudal04:46:42  +  00:21:53=33,275 
80 ERIDaniel TeklehaimanotZAFDimension Data04:46:42  +  00:21:53=33,275 
81 FRAFlorian VachonFRAFortuneo - Vital Concept04:46:42  +  00:21:53=33,275 
82 ETHTsgabu Gebremaryan GrmayITALampre-Merida04:46:42  +  00:21:53=33,275 
83 USABrent BookwalterUSABMC Racing Team04:46:42  +  00:21:53=33,275 
84 AUTPatrick KonradDEUBora-Argon 1804:46:42  +  00:21:53=33,275 
85 ITAPaolo TiralongoKAZAstana Pro Team04:46:42  +  00:21:53=33,275 
86 ZAFDaryl ImpeyAUSORICA BikeExchange04:46:42  +  00:21:53=33,275 
87 UKRAndriy GrivkoKAZAstana Pro Team04:46:42  +  00:21:53=33,275 
88 DNKMichael ValgrenRUSTinkoff04:46:42  +  00:21:53=33,275 
89 NLDLaurens ten DamDEUTeam Giant Alpecin04:46:42  +  00:21:53=33,275 
90 FRAPierre-Luc PérichonFRAFortuneo - Vital Concept04:46:42  +  00:21:53=33,275 
91 FRAJérémy RoyFRAFDJ04:46:42  +  00:21:53=33,275 
92 KAZAlexey LutsenkoKAZAstana Pro Team04:46:42  +  00:21:53=33,275 
93 COLWinner AnaconaESPMovistar Team04:46:42  +  00:21:53=33,275 
94 AUSRohan DennisUSABMC Racing Team04:46:42  +  00:21:53=33,275 
95 ESPMikel Landa MeanaGBRSky Procycling04:46:42  +  00:21:53=33,275 
96 ESPImanol ErvitiESPMovistar Team04:46:42  +  00:21:53=33,275 
97 BLRVasil KiryienkaGBRSky Procycling04:46:42  +  00:21:53=33,275 
98 FRACyril LemoineFRACofidis – Solutions Crédits04:46:42  +  00:21:53=33,275 
100 IRLChristopher Juul JensenAUSORICA BikeExchange04:46:42  +  00:21:53=33,275 
101 BELThomas De GendtBELLotto Soudal04:47:29  +  00:22:40=33,185 
102 JPNYukiya ArashiroITALampre-Merida04:47:29  +  00:22:40=33,185 
103 DEUPaul MartensNLDTeam Lotto NL - Jumbo04:47:29  +  00:22:40=33,185 
104 AUSAdam HansenBELLotto Soudal04:47:29  +  00:22:40=33,185 
105 ESPLuis Angel MateFRACofidis – Solutions Crédits04:47:29  +  00:22:40=33,185 
106 BELMaarten WynantsNLDTeam Lotto NL - Jumbo04:49:24  +  00:24:35=32,965 
107 FRANicolas EdetFRACofidis – Solutions Crédits04:50:18  +  00:25:29=32,863 
108 CHEReto HollensteinCHEIAM Cycling04:51:21  +  00:26:32=32,744 
109 FRATony GallopinBELLotto Soudal04:51:21  +  00:26:32=32,744 
110 ESPMarkel IrizarUSATrek – Segafredo04:51:21  +  00:26:32=32,744 
111 CZEPetr VakocBELEtixx - Quick Step04:51:21  +  00:26:32=32,744 
112 PRTRui CostaITALampre-Merida04:51:21  +  00:26:32=32,744 
113 NLDRoy CurversDEUTeam Giant Alpecin04:51:21  +  00:26:32=32,744 
114 FRAWilliam BonnetFRAFDJ04:51:21  +  00:26:32=32,744 
115 BELJulien VermoteBELEtixx - Quick Step04:51:21  +  00:26:32=32,744 
116 FRAChristophe LaporteFRACofidis – Solutions Crédits04:51:21  +  00:26:32=32,744 
117 NLDAlbert TimmerDEUTeam Giant Alpecin04:51:21  +  00:26:32=32,744 
118 CANAntoine DuchesneFRADirect Energie04:51:21  +  00:26:32=32,744 
119 USALawson CraddockUSATeam Cannondale Drapac04:51:21  +  00:26:32=32,744 
120 FRAAnthony DelaplaceFRAFortuneo - Vital Concept04:51:21  +  00:26:32=32,744 
121 FRAArmindo FonsecaFRAFortuneo - Vital Concept04:51:21  +  00:26:32=32,744 
122 DNKChris Anker SørensenFRAFortuneo - Vital Concept04:51:21  +  00:26:32=32,744 
123 ARGEduardo SepulvedaFRAFortuneo - Vital Concept04:51:21  +  00:26:32=32,744 
124 ITAMatteo BonoITALampre-Merida04:51:21  +  00:26:32=32,744 
125 FRACyril GautierFRAAg2r La Mondiale04:51:21  +  00:26:32=32,744 
126 DEURobert WagnerNLDTeam Lotto NL - Jumbo04:51:21  +  00:26:32=32,744 
127 AUTMarco HallerRUSTeam Katusha04:51:21  +  00:26:32=32,744 
128 ESPAngel ViciosoRUSTeam Katusha04:51:21  +  00:26:32=32,744 
130 AUSMichael MatthewsAUSORICA BikeExchange04:52:56  +  00:28:07=32,567 
131 CHEGregory RastUSATrek – Segafredo04:52:56  +  00:28:07=32,567 
132 NLDRamon SinkeldamDEUTeam Giant Alpecin04:52:56  +  00:28:07=32,567 
133 POLMaciej BodnarRUSTinkoff04:52:56  +  00:28:07=32,567 
134 NOREdvald Boasson HagenZAFDimension Data04:52:56  +  00:28:07=32,567 
135 WALLuke RoweGBRSky Procycling04:52:56  +  00:28:07=32,567 
136 ENGIan StannardGBRSky Procycling04:52:56  +  00:28:07=32,567 
137 AUSLuke DurbridgeAUSORICA BikeExchange04:52:56  +  00:28:07=32,567 
138 SVNLuka PibernikITALampre-Merida04:52:56  +  00:28:07=32,567 
139 AUSMathew HaymanAUSORICA BikeExchange04:52:56  +  00:28:07=32,567 
140 SVNKristjan KorenUSATeam Cannondale Drapac04:52:56  +  00:28:07=32,567 
141 ZAFReinardt Janse Van RensburgZAFDimension Data04:52:56  +  00:28:07=32,567 
142 NLDTimo RoosenNLDTeam Lotto NL - Jumbo04:52:56  +  00:28:07=32,567 
143 DEUTony MartinBELEtixx - Quick Step04:52:56  +  00:28:07=32,567 
144 ITAMatteo TosattoRUSTinkoff04:52:56  +  00:28:07=32,567 
145 ITAOscar GattoRUSTinkoff04:52:56  +  00:28:07=32,567 
146 ERINatnael Teweldemedhin BerhaneZAFDimension Data04:52:56  +  00:28:07=32,567 
147 DEUPaul VossDEUBora-Argon 1804:52:56  +  00:28:07=32,567 
148 BELJasper StuyvenUSATrek – Segafredo04:52:56  +  00:28:07=32,567 
149 FRAYohann GèneFRADirect Energie04:52:56  +  00:28:07=32,567 
150 FRABryan CoquardFRADirect Energie04:52:56  +  00:28:07=32,567 
151 CHEFabian CancellaraUSATrek – Segafredo04:52:56  +  00:28:07=32,567 
152 SVKPeter SaganRUSTinkoff04:53:02  +  00:28:13=32,556 
153 BELIljo KeisseBELEtixx - Quick Step04:53:59  +  00:29:10=32,451 
154 IMNMark CavendishZAFDimension Data04:53:59  +  00:29:10=32,451 
155 ITAFabio SabatiniBELEtixx - Quick Step04:53:59  +  00:29:10=32,451 
156 DEUMarcel SiebergBELLotto Soudal04:53:59  +  00:29:10=32,451 
157 CHEMichael AlbasiniAUSORICA BikeExchange04:53:59  +  00:29:10=32,451 
158 ITAJacopo GuarnieriRUSTeam Katusha04:53:59  +  00:29:10=32,451 
159 NLDDylan GroenewegenNLDTeam Lotto NL - Jumbo04:53:59  +  00:29:10=32,451 
160 FRAAdrien PetitFRADirect Energie04:53:59  +  00:29:10=32,451 
161 ITACesare BenedettiDEUBora-Argon 1804:53:59  +  00:29:10=32,451 
162 DNKLars BakBELLotto Soudal04:53:59  +  00:29:10=32,451 
163 DEUAndré GreipelBELLotto Soudal04:53:59  +  00:29:10=32,451 
164 ENGStephen CummingsZAFDimension Data04:53:59  +  00:29:10=32,451 
165 NORVegard BreenFRAFortuneo - Vital Concept04:53:59  +  00:29:10=32,451 
166 FRASamuel DumoulinFRAAg2r La Mondiale04:53:59  +  00:29:10=32,451 
167 USAAlex HowesUSATeam Cannondale Drapac04:53:59  +  00:29:10=32,451 
168 SVNBorut BozicFRACofidis – Solutions Crédits04:53:59  +  00:29:10=32,451 
169 FRA Alexis GougeardFRAAg2r La Mondiale04:53:59  +  00:29:10=32,451 
170 BRAMaximilano RichezeBELEtixx - Quick Step04:53:59  +  00:29:10=32,451 
171 DEUAndreas SchillingerDEUBora-Argon 1804:53:59  +  00:29:10=32,451 
172 NORAlexander KristoffRUSTeam Katusha04:53:59  +  00:29:10=32,451 
173 LTURamunas NavardauskasUSATeam Cannondale Drapac04:53:59  +  00:29:10=32,451 
174 AUTBernhard EiselZAFDimension Data04:53:59  +  00:29:10=32,451 
175 ITADavide CimolaiITALampre-Merida04:53:59  +  00:29:10=32,451 
176 NZLGregory HendersonBELLotto Soudal04:53:59  +  00:29:10=32,451 
177 BELSam BennettDEUBora-Argon 1804:53:59  +  00:29:10=32,451 
178 NZLShane ArchboldDEUBora-Argon 1804:53:59  +  00:29:10=32,451 
179 BELSep VanmarckeNLDTeam Lotto NL - Jumbo04:53:59  +  00:29:10=32,451 
180 NORSondre Holst EngerCHEIAM Cycling04:53:59  +  00:29:10=32,451 
181 DEUJohn DegenkolbDEUTeam Giant Alpecin04:53:59  +  00:29:10=32,451 
182 DEUMarcel KittelBELEtixx - Quick Step04:53:59  +  00:29:10=32,451 
183 ENGDaniel McLayFRAFortuneo - Vital Concept04:56:34  +  00:31:45=32,168 

Withdrawls: 3
 
Rider
Team
Reason
15  ESPJesus HerradaESPMovistar TeamDid not finish
101  IMNMark CavendishZAFDimension DataDid not start
164  BELJens DebusschereBELLotto SoudalDid not start

Todays birthdays.

1896  Georges Cuvelier
1909  Gaspard Rinaldi
1913  Erich Bautz
1913  Alexandre Pawlisiak
1916  Edmond De Lathouwer
1918  Prosper Depredomme
1929  Eluf Dalgaard
1933  Jean Graczyk
1942  Guy Seyve
1943  Henri Rabaute
1964  Jan Siemons
1966  Andrew Bishop
1975  Andrea Brognara
1984  Mikel Nieve